Home > Time Zones > World Clock > Weather > Italy > Rome > Past weeks

Flag for Italy Weather past 2 weeks in Rome, Italy

Now
57 °F

Passing clouds.


Feels Like: 57 °F
Forecast: 56 / 61 °F
Wind: No wind

Location: Rome / Ciampino

Current Time: Apr 26, 2015 at 3:22:04 AM

Latest Report: Apr 26, 2015 at 2:45 AM


Visibility: 5 mi

Pressure: 30.01 "Hg

Humidity: 88%

Dew point: 54 °F

Location of RomeLocation

Historic Weather in Rome — Graph

°F

Rome temperature yesterday

Maximum temperature yesterday: 72 °F (at 4:15 PM)
Minimum temperature yesterday: 50 °F (at 7:15 AM)
Average temperature yesterday: 61 °F

Past Weeks' High & Low Weather Summary

 TemperatureHumidityPressure
High75 °F (Apr 22, 1:15 PM)94% (Apr 11, 11:45 PM)30.39 "Hg (Apr 11, 11:45 PM)
Low41 °F (Apr 11, 6:15 AM)19% (Apr 22, 2:15 PM)29.89 "Hg (Apr 18, 7:45 PM)
Average59 °F67%30.13 "Hg
* Reported Apr 11 1:15 AM — Apr 26 1:15 AM, Rome, Weather by CustomWeather, © 2015

Note: Actual official high and low records may vary slightly from our data, if they occured in-between our weather recording intervals... More about our weather records

Advertising

Rome weather history for previous 24 hours

 ConditionsComfort  
Time TempWeatherWind HumidityBarometerVisibility
1:15 AM
Sun, Apr 26
57 °FPassing clouds.No wind88%30.01 "Hg4 mi
12:45 AM57 °FPassing clouds.No wind88%30.01 "Hg4 mi
12:15 AM57 °FPassing clouds.No wind88%30.01 "Hg4 mi
11:45 PM
Sat, Apr 25
59 °FPassing clouds.No wind88%30.01 "HgN/A
10:45 PM59 °FClear.1 mph88%30.01 "Hg10 mi
10:15 PM61 °FClear.2 mph88%30.01 "Hg10 mi
9:45 PM61 °FClear.No wind88%30.01 "Hg10 mi
9:15 PM61 °FClear.2 mph88%30.01 "Hg10 mi
8:45 PM61 °FPassing clouds.5 mph88%30.01 "HgN/A
8:15 PM63 °FPassing clouds.2 mph83%30.01 "HgN/A
7:45 PM64 °FPassing clouds.5 mph83%30.01 "HgN/A
7:15 PM66 °FPassing clouds.6 mph78%30.01 "HgN/A
6:45 PM68 °FPassing clouds.9 mph73%29.98 "HgN/A
6:15 PM70 °FPassing clouds.10 mph64%29.98 "HgN/A
5:45 PM72 °FPassing clouds.2 mph44%29.98 "HgN/A
5:15 PM72 °FPassing clouds.1 mph44%29.98 "HgN/A
4:45 PM72 °FPassing clouds.3 mph50%29.98 "HgN/A
4:15 PM72 °FPassing clouds.2 mph53%30.01 "HgN/A
3:45 PM70 °FPassing clouds.2 mph57%30.01 "HgN/A
3:15 PM70 °FPassing clouds.5 mph57%30.01 "HgN/A
2:45 PM68 °FScattered clouds.3 mph64%30.04 "HgN/A
2:15 PM68 °FScattered clouds.3 mph64%30.04 "HgN/A
1:45 PM68 °FScattered clouds.3 mph64%30.04 "HgN/A
1:15 PM68 °FScattered clouds.3 mph64%30.07 "Hg6 mi
12:45 PM68 °FScattered clouds.6 mph64%30.07 "Hg6 mi
12:15 PM68 °FScattered clouds.5 mph64%30.07 "Hg6 mi
11:45 AM66 °FScattered clouds.5 mph64%30.07 "Hg5 mi
11:15 AM64 °FScattered clouds.3 mph68%30.07 "Hg5 mi
10:45 AM63 °FScattered clouds.3 mph73%30.07 "Hg5 mi
10:15 AM63 °FScattered clouds.3 mph73%30.07 "Hg5 mi
9:45 AM61 °FScattered clouds.2 mph77%30.07 "Hg5 mi
9:15 AM57 °FPassing clouds.1 mph82%30.04 "Hg5 mi
8:55 AM55 °FPassing clouds.No wind88%30.04 "Hg5 mi
8:15 AM54 °FPassing clouds.1 mph88%30.04 "Hg5 mi
7:45 AM50 °FSunny.No wind94%30.01 "Hg10 mi
7:15 AM50 °FSunny.No wind94%30.01 "Hg10 mi
6:45 AM52 °FClear.No wind88%30.01 "Hg10 mi
6:15 AM52 °FClear.No wind88%30.01 "Hg10 mi
5:45 AM52 °FClear.No wind88%30.01 "Hg10 mi
5:15 AM52 °FClear.No wind88%30.01 "Hg10 mi
4:45 AM52 °FClear.No wind88%30.01 "Hg10 mi
4:15 AM52 °FClear.No wind88%30.01 "Hg10 mi
3:45 AM52 °FClear.No wind94%30.01 "Hg10 mi
3:15 AM54 °FClear.No wind88%30.01 "Hg10 mi
Weather by CustomWeather, © 2015

See weather overviewHow to use our weather pages